www.pogodaiklimat.ru

Погода и климат >> Архив погоды >> Россия >> Краснодарский край >> Белая Глина


ПОГОДА в Белой Глине

  • Прогноз погоды в Белой Глине
  • Монитор погоды в Белой Глине
  • Климат города

АРХИВ ПОГОДЫ в Белой Глине

Время (UTC), дата Ветер
(напр.,м/с)
 
Видим.   Явления Облачность Т
(С)
Тd
(С)
f
(%)
Тe
(С)
Тes
(С)
Комфортность P
(гПа)
Po
(гПа)
Тmin
(С)
Tmax
(С)
R
(мм)
R24
(мм)
S
(см)
03 16.09 ЮЗ 2 10 км {ливн. осадки} 10/0
[Ac und]
+18.7 +15.5 82 +20 +20 1011.4 1003.3 +17.8 0.5
06 16.09 Ю 3 10 км {ливн. осадки} 10/3 300 м
[Cb cap Ac lent]
+20.2 +15.4 74 +23 +24 комфорт 1011.7 1003.7
09 16.09 Ю 8-13
{13}
10 км 9/8 600 м
[Cb cap Ac lent]
+23.6 +15.0 59 +26 +27 жарко 1011.0 1003.1
12 16.09 Ю 7-13
{14}
10 км 8/6 1000 м
[Cu med, cong Ci sp]
+25.1 +13.2 48 +27 +28 жарко 1009.8 1001.9
15 16.09 ЮЗ 8-13
{14}
10 км 9/9 600 м
[Sc diur, vesp]
+21.5 +14.4 64 +24 +24 комфорт 1009.6 1001.6 +25.5
18 16.09 З 5
{16}
10 км {ливн. осадки} 10/4 300 м
[Cb cap Ac und]
+18.8 +16.8 88 +20 +20 1011.6 1003.5
21 16.09 З 3
{11}
10 км {ливн. осадки} 8/0
[Ac lent]
+18.7 +16.4 86 +20 +20 1013.4 1005.3
00 17.09 З 2 10 км {ливн. осадки} 3/0
[Ci fib]
+17.8 +15.2 85 +18 +18 1014.5 1006.3
03 17.09 З 2 10 км 8/0
[Ac lent]
+15.3 +10.3 72 +15 +15 1016.1 1007.9 +15.3 7
06 17.09 З 4 10 км 4/4 1500 м
[Cu med, cong]
+17.9 +12.6 71 +18 +20 1017.2 1009.0 +14.7
09 17.09 З 4
{11}
10 км 6/6 1500 м
[Cu med, cong]
+20.3 +9.6 50 +22 +25 комфорт 1017.5 1009.4
12 17.09 З 5
{12}
10 км 3/3 1500 м
[Cu hum]
+20.9 +5.3 36 +22 +24 комфорт 1017.6 1009.5
15 17.09 З 3
{10}
10 км 1/1 1500 м
[Cb cap]
+19.0 +5.2 40 +20 +20 1018.2 1010.0 +21.3
18 17.09 ЮЗ 2 10 км 6/0
[Ac trans]
+14.0 +7.1 63 +14 +14 1020.1 1011.8
21 17.09 З 2 10 км ясно +12.3 +5.5 63 +12 +12 1020.8 1012.4
00 18.09 З 1 10 км ясно +9.2 +4.1 70 +9 +9 1021.3 1012.8
03 18.09 З 2 10 км ясно +7.7 +3.1 73 +6 +6 1022.3 1013.8 +7.5
06 18.09 З 1 10 км 3/0
[Ci sp]
+15.5 +4.9 49 +16 +21 1023.5 1015.2
09 18.09 СЗ 2 10 км ясно +20.2 +2.0 30 +21 +32 комфорт 1022.7 1014.6
12 18.09 СЗ 3 10 км ясно +21.7 +1.2 26 +21 +26 комфорт 1021.4 1013.3
15 18.09 З 2 10 км 3/0
[Ci sp]
+19.9 +2.3 31 +21 +21 комфорт 1021.1 1013.0 +22.0
18 18.09 ЮЗ 1 10 км ясно +15.1 +4.2 48 +16 +16 1022.0 1013.7
21 18.09 З 1 10 км ясно +14.1 +4.2 51 +15 +15 1022.2 1013.9
00 19.09 З 2 10 км ясно +13.4 +6.1 61 +13 +13 1022.0 1013.7
03 19.09 З 2 10 км 3/0
[Ci fib]
+12.7 +7.4 70 +12 +12 1022.0 1013.6 +12.7
06 19.09 З 2 10 км ясно +19.1 +7.9 48 +20 +25 1022.4 1014.2 +12.7
09 19.09 З 4 10 км ясно +23.8 +5.9 31 +24 +31 комфорт 1021.5 1013.5
12 19.09 З 3
{10}
10 км ясно +25.9 +6.1 28 +25 +30 комфорт 1020.4 1012.5
15 19.09 СЗ 1 10 км ясно +24.1 +5.9 31 +24 +24 комфорт 1020.4 1012.3 +26.1
18 19.09 З 1 10 км ясно +16.8 +7.6 55 +18 +18 1021.8 1013.6
21 19.09 штиль 0 10 км ясно +12.7 +7.0 68 +12 +12 1022.2 1013.8
00 20.09 штиль 0 10 км ясно +9.8 +5.8 76 +9 +9 1022.1 1013.7
03 20.09 штиль 0 10 км ясно +8.6 +6.3 85 +8 +8 1022.2 1013.7 +8.4
06 20.09 штиль 0 10 км ясно +19.0 +7.6 48 +19 +25 1022.3 1014.1
09 20.09 СВ 2 10 км ясно +25.3 +5.1 27 +25 +35 комфорт 1021.1 1013.1
12 20.09 штиль 0 10 км ясно +26.9 +4.9 24 +26 +34 жарко 1019.4 1011.4
15 20.09 С 1 10 км ясно +24.4 +6.2 31 +24 +24 комфорт 1018.7 1010.7 +27.4
18 20.09 штиль 0 10 км ясно +16.2 +6.8 54 +16 +16 1019.2 1011.0
21 20.09 штиль 0 10 км ясно +13.5 +6.7 63 +13 +13 1018.7 1010.4
00 21.09 штиль 0 10 км ясно +11.5 +6.0 69 +11 +11 1018.6 1010.2
03 21.09 штиль 0 10 км ясно +10.0 +5.5 74 +9 +9 1019.0 1010.6 +10.0
06 21.09 З 1 10 км ясно +22.4 +7.3 38 +23 +28 комфорт 1019.2 1011.1 +9.9
09 21.09 ЮВ 1 10 км ясно +28.2 +6.0 24 +27 +39 жарко 1018.5 1010.6
12 21.09 С 2 10 км ясно +29.7 +4.9 21 +28 +34 жарко 1017.6 1009.7
15 21.09 СВ 1 10 км ясно +27.0 +5.7 26 +26 +26 жарко 1017.4 1009.5 +29.9
18 21.09 штиль 0 10 км ясно +20.0 +7.4 44 +21 +21 комфорт 1018.5 1010.4
21 21.09 штиль 0 10 км ясно +17.8 +8.5 54 +18 +18 1018.8 1010.7
00 22.09 штиль 0 10 км ясно +13.4 +8.1 70 +13 +13 1019.1 1010.8
03 22.09 СВ 1 10 км ясно +13.4 +8.9 74 +14 +14 1019.3 1010.9 +12.6
06 22.09 В 2 10 км ясно +20.6 +9.3 48 +23 +27 комфорт 1019.4 1011.3
09 22.09 В 2 10 км ясно +28.2 +8.3 29 +28 +38 жарко 1018.2 1010.3
12 22.09 В 3 10 км ясно +29.7 +6.3 23 +28 +33 жарко 1016.7 1008.8
15 22.09 СВ 3 10 км ясно +26.4 +6.9 29 +26 +26 жарко 1016.4 1008.5 +29.8
18 22.09 СВ 2 10 км ясно +22.1 +5.9 35 +23 +23 комфорт 1017.1 1009.0
21 22.09 СВ 1 10 км ясно +16.9 +8.0 56 +18 +18 1016.9 1008.7

 

Местоположение метеостанции Белая Глина (Краснодарский край, Россия): широта 46.08 долгота 40.88 высота над уровнем моря 69 м.

В архиве по умолчанию представлена погода в Белой Глине за последнюю неделю. Архивные данные за месяц целиком и за предыдущие месяцы, начиная с января 2011 года, Вы можете получить, выбрав интересующий диапазон дат из раскрывающегося списка и нажав кнопку "Ввод!".


*Определитесь, кто Вы:
робот инопланетянин человек

Внимание! Время в таблицах - всемирное. Для получения местного времени необходимо прибавить поправку, которая в Белой Глине равна 3 ч.

Смотрите также архив погоды в соседних городах и на ближайших метеорологических станциях:

Погода в Красногвардейском (Ставропольский край, Россия) (54 км)
Погода в Гиганте (Ростовская область, Россия) (61 км)
Погода в Тихорецке (Краснодарский край, Россия) (67 км)
Погода в Новоалександровске (Ставропольский край, Россия) (69 км)
Погода в Кропоткине (Краснодарский край, Россия) (76 км)
Погода в Сосыке (Краснодарский край, Россия) (81 км)
Погода в Городовиковске (Калмыкия, Россия) (84 км)
Погода в Зерноград (Ростовская область, Россия) (96 км)
Погода в Изобильном (Ставропольский край, Россия) (101 км)
Погода в Кущевской (Краснодарский край, Россия) (109 км)

Пояснения к столбцам:

Ветер - указаны скорость ветра в м/с - средняя за 10 мин, порывы в срок и между сроками (в фигурных скобках) и направление, откуда дует ветер: С - северный, СВ - северо-восточный, В - восточный, ЮВ - юго-восточный, Ю - южный, ЮЗ - юго-западный, З - западный, СЗ - северо-западный.
Видимость - горизонтальная дальность видимости в метрах или километрах. При видимости от 1 до 10 км при отсутствии осадков обычно наблюдается дымка, при ухудшении видимости до 1 км и менее - туман. В сухую погоду видимость может ухудшаться дымом, пылью или мглою.
Явления - указаны атмосферные явления, наблюдавшиеся в срок или в последний час перед сроком; фигурными скобками обозначены явления, наблюдавшиеся между сроками (за 1-3 часа до срока); квадратными скобками обозначены град или гололедные отложения с указанием их диаметра в мм.
Облачность - указаны через наклонную черту общая и нижняя облачность в баллах и высота нижней границы облаков в метрах; квадратными скобками обозначены формы облаков: Ci - перистые, Cs - перисто-слоистые, Cc - перисто-кучевые, Ac - высококучевые, As - высокослоистые, Sc - слоисто-кучевые, Ns - слоисто-дождевые, Cu - кучевые, Cb - кучево-дождевые. Подробнее классификацию облаков см. в Атласе облаков (PDF).
T - Температура воздуха - температура, измеренная на высоте 2 м над землей.
Td - Температура точки росы - температура, при понижении до которой содержащийся в воздухе водяной пар достигнет насыщения.
f - Относительная влажность воздуха - влажноcть воздуха, измеренная на высоте 2 м над землей.
Te - Эффективная температура - температура, которую ощущает одетый по сезону человек в тени. Характеристика душности погоды. При расчете учитывается влияние влажности воздуха и скорости ветра на теплоощущения человека.
Tes - Эффективная температура на солнце - температура, которую ощущает человек, с поправкой на солнечный нагрев. Характеристика знойности погоды. Зависит от высоты солнца над горизонтом, облачности и скорости ветра. Ночью, в пасмурную погоду, а также при ветре 12 м/с и более поправка равна нулю.
P - Атмосферное давление - приведенное к уровню моря атмосферное давление.
Po - Атмосферное давление - измеренное на уровне метеостанции атмосферное давление.
Tmin - Минимальная температура - минимум температуры воздуха на высоте 2 м над землей.
Tmax - Максимальная температура - максимум температуры воздуха на высоте 2 м над землей.
R - Количество осадков - Количество выпавших осадков за период времени, мм. При наведении курсора мыши на число - период времени, за который выпало указанное количество осадков.
R24 - Количество осадков - Количество выпавших осадков за 24 часа, мм.
S - Снежный покров - Высота снежного покрова, см. При наведении курсора мыши на число - состояние снежного покрова и степень покрытия местности в баллах.